Bellingham, WA
on Saturday, December 15, 2012

Saturday
Previous Day Next Day
Daily Summary
 ActualAverageRecord
Temperature
Mean Temperature °F 38°F  
Max Temperature 44°F 44°F 62°F (1962)
Min Temperature 33°F 32°F 2°F (1964)
Degree Days
Heating Degree Days 26 27  
Month to date heating degree days 395  
Cooling Degree Days 0 0  
Month to date cooling degree days 0  
Year to date cooling degree days 42  
Moisture
Dew Point 34°F   
Average Humidity 83    
Maximum Humidity 100    
Minimum Humidity 68    
Precipitation
Precipitation 0.00 in 0.13 in 1.48 in (1963)
Month to date precipitation 2.21  
Year to date precipitation 33.82  
Wind
Wind Speed 9 mph   
Max Wind Speed 23 mph   
Max Gust Speed 32 mph   
Visibility 10 miles   
Events Rain   

Key: T is trace of precipitation, MM is missing value
Source: NWS Daily Summary
Time(PST)TemperatureDew PointHumidity Pressure Visibility Wind DirectionWind SpeedGust SpeedPrecipitationEvents Conditions
12:53 AM 33.1°F 30.9°F 92% 29.91 in 10.0 miles NE 4.6 mph - N/A   Mostly Cloudy
1:53 AM 33.1°F 32.0°F 96% 29.89 in 10.0 miles Calm Calm - N/A   Mostly Cloudy
2:53 AM 34.0°F 32.0°F 92% 29.88 in 10.0 miles Calm Calm - N/A   Mostly Cloudy
3:53 AM 33.8°F 32.0°F 93% 29.81 in 10.0 miles Calm Calm - N/A   Overcast
4:06 AM 33.8°F 33.8°F 100% 29.81 in 10.0 miles Calm Calm - N/A   Overcast
4:19 AM 35.6°F 32.0°F 87% 29.81 in 10.0 miles East 5.8 mph - N/A   Overcast
4:53 AM 34.0°F 32.0°F 92% 29.83 in 10.0 miles Variable 4.6 mph - N/A   Overcast
5:53 AM 39.2°F 30.2°F 70% 29.77 in 10.0 miles ESE 8.1 mph - N/A   Overcast
6:53 AM 39.9°F 33.1°F 77% 29.78 in 10.0 miles SE 13.8 mph 23.0 mph 0.00 in Rain Light Rain
7:43 AM 37.4°F 33.8°F 87% 29.72 in 6.0 miles ESE 11.5 mph - 0.00 in Rain Light Rain
7:53 AM 37.9°F 34.0°F 86% 29.74 in 6.0 miles ESE 9.2 mph - 0.00 in Rain Light Rain
8:53 AM 39.0°F 33.1°F 79% 29.71 in 6.0 miles ESE 13.8 mph 26.5 mph 0.00 in   Haze
9:53 AM 37.9°F 34.0°F 86% 29.68 in 6.0 miles ESE 13.8 mph 20.7 mph 0.00 in Rain Light Rain
10:53 AM 37.9°F 34.0°F 86% 29.65 in 10.0 miles Variable 3.5 mph - 0.00 in   Overcast
11:53 AM 39.9°F 33.1°F 77% 29.60 in 10.0 miles ESE 13.8 mph 23.0 mph N/A   Overcast
12:00 PM 39.2°F 33.8°F 81% 29.57 in 10.0 miles SE 12.7 mph 24.2 mph N/A   Overcast
12:53 PM 41.0°F 33.1°F 73% 29.54 in 10.0 miles ESE 18.4 mph 28.8 mph 0.00 in   Overcast
1:53 PM 43.0°F 34.0°F 71% 29.52 in 10.0 miles SE 17.3 mph 23.0 mph 0.00 in   Overcast
2:53 PM 44.1°F 34.0°F 68% 29.52 in 10.0 miles SSE 12.7 mph 25.3 mph N/A   Overcast
3:53 PM 42.1°F 35.1°F 76% 29.51 in 10.0 miles SSE 19.6 mph 32.2 mph 0.00 in   Overcast
4:32 PM 42.8°F 35.6°F 76% 29.49 in 10.0 miles SSE 15.0 mph 27.6 mph N/A   Overcast
4:53 PM 42.1°F 35.1°F 76% 29.52 in 10.0 miles SSE 18.4 mph 29.9 mph N/A   Overcast
5:20 PM 42.8°F 35.6°F 76% 29.50 in 10.0 miles SSE 16.1 mph 26.5 mph N/A   Overcast
5:53 PM 42.1°F 35.1°F 76% 29.53 in 10.0 miles SSE 20.7 mph 28.8 mph 0.00 in   Overcast
6:07 PM 42.8°F 35.6°F 76% 29.51 in 10.0 miles SSE 20.7 mph 32.2 mph N/A   Overcast
6:53 PM 41.0°F 36.0°F 82% 29.55 in 10.0 miles SSE 23.0 mph 32.2 mph 0.00 in Rain Light Rain
7:53 PM 39.9°F 36.0°F 86% 29.55 in 10.0 miles SSE 18.4 mph 26.5 mph 0.00 in Rain Light Rain
8:28 PM 37.4°F 35.6°F 93% 29.53 in 10.0 miles SSE 16.1 mph 27.6 mph 0.00 in   Overcast
8:40 PM 39.2°F 35.6°F 87% 29.53 in 10.0 miles SSE 12.7 mph - 0.00 in   Overcast
8:53 PM 39.0°F 36.0°F 89% 29.56 in 10.0 miles SSE 15.0 mph 20.7 mph 0.00 in Rain Light Rain
9:53 PM 41.0°F 37.0°F 86% 29.58 in 10.0 miles SSE 13.8 mph 23.0 mph 0.00 in   Overcast
10:53 PM 42.1°F 37.0°F 82% 29.61 in 10.0 miles South 6.9 mph 17.3 mph N/A   Overcast
11:53 PM 42.1°F 36.0°F 79% 29.64 in 10.0 miles SSE 6.9 mph - N/A   Overcast
Moon Phase
Dec. 15 Dec. 20 Dec. 28 Jan. 04 Jan. 11
Sunrise:07:57 AM (PST) Moon Rise:09:44 AM (PST)12/15
Sunset:04:14 PM (PST) Moon Set:07:36 PM (PST)12/15

Copyright © 2014 The Weather Underground, Inc.